Content
SEND FEEDBACK

Daily
Averages
Monthly
Summary
United States of America

JAMESTOWN, NEW YORK


Home > North America > United States > New York
Elevation: 1725 feet     Latitude: 42 09N     Longitude: 079 15W

WEATHER
 
SELECT A DAY
Number of Records: 343,435;   Date Range: 1/1/95 - 7/7/14
 
SHARE

PRINT THIS DATA

[ ← Previous Day ]
WEATHER ALMANAC - MARCH 12, 2013
[ Next Day → ]
[ °C ]   °F
Weather ElementAverageHighLow
Temperature32.9 °F42.8 °F (12:35 am)28.4 °F (9:15 pm)
Dewpoint29.1 °F41 °F (12:35 am)24.8 °F (9:55 pm)
Humidity86.2 %93 % (12:35 am)75 % (10:55 am)
Barometer29.82 in29.90 in (10:15 pm)29.72 in (12:55 am)
Wind Speed9 mph13.8 mph (11:15 pm)
Wind Gust20.7 mph (11:35 pm)
Weather ElementAverage
Visibility7.6 mi
Wind DirectionWSW (260 °)

Weather ElementTotal
Precipitation0.18 in
Heating Degree Days29.4 (Base 65)
Averaged from 71 records on March 12, 2013
WEATHER CONDITIONS BREAKOUT
WIND DIRECTION BREAKOUT
WEATHER BY HOUR - MARCH 12, 2013
[ °C ]   °F
Local TimeTemperatureDewpointHumidityBarometerVisibilityWind DirectionWind SpeedGust SpeedPrecipitationEventsConditions
12:35 AM42.8 °F41.0 °F93 %29.74 in8.0 miSSW (200°)5.8 mph0.01 inOvercast
12:55 AM42.8 °F41.0 °F93 %29.72 in9.0 miSSW (200°)3.5 mph0.02 inOvercast
1:15 AM42.8 °F39.2 °F87 %29.74 in7.0 miWest (280°)11.5 mph17.3 mph0.01 inOvercast
1:35 AM39.2 °F37.4 °F93 %29.74 in7.0 miWNW (300°)12.7 mph0.03 inOvercast
1:55 AM39.2 °F37.4 °F93 %29.74 in7.0 miWNW (290°)9.2 mph0.04 inOvercast
2:15 AM37.4 °F35.6 °F93 %29.75 in10.0 miWest (270°)10.4 mphOvercast
2:35 AM37.4 °F35.6 °F93 %29.75 in8.0 miWest (270°)9.2 mphOvercast
2:55 AM37.4 °F35.6 °F93 %29.76 in8.0 miWest (260°)11.5 mph0.01 inMostly Cloudy
3:15 AM37.4 °F33.8 °F87 %29.76 in7.0 miWest (260°)6.9 mph0.01 inOvercast
3:35 AM37.4 °F35.6 °F93 %29.75 in7.0 miWNW (300°)9.2 mph0.01 inOvercast
3:55 AM33.8 °F30.2 °F87 %29.77 in8.0 miWNW (290°)12.7 mph0.01 inOvercast
4:15 AM33.8 °F30.2 °F87 %29.77 in8.0 miWest (280°)12.7 mph0.01 inOvercast
4:35 AM33.8 °F28.4 °F81 %29.77 in5.0 miWest (280°)8.1 mph0.01 inOvercast
4:55 AM33.8 °F28.4 °F81 %29.77 in10.0 miWest (270°)6.9 mph0.01 inOvercast
5:15 AM33.8 °F28.4 °F81 %29.78 in5.0 miWest (260°)9.2 mphOvercast
5:35 AM32.0 °F30.2 °F93 %29.78 in5.0 miWest (260°)6.9 mphOvercast
5:55 AM32.0 °F30.2 °F93 %29.79 in10.0 miWest (260°)5.8 mphOvercast
6:15 AM32.0 °F28.4 °F87 %29.79 in10.0 miWest (260°)6.9 mphOvercast
6:35 AM33.8 °F28.4 °F81 %29.80 in10.0 miWest (260°)5.8 mphOvercast
6:55 AM33.8 °F28.4 °F81 %29.80 in10.0 miWest (260°)6.9 mphOvercast
7:15 AM33.8 °F28.4 °F81 %29.80 in10.0 miWSW (250°)5.8 mphOvercast
7:35 AM33.8 °F28.4 °F81 %29.81 in10.0 miWest (270°)5.8 mphOvercast
7:55 AM32.0 °F28.4 °F87 %29.81 in10.0 miWSW (250°)5.8 mphOvercast
8:15 AM32.0 °F28.4 °F87 %29.81 in7.0 miWSW (240°)6.9 mphOvercast
8:35 AM32.0 °F28.4 °F87 %29.82 in2.0 miSW (230°)6.9 mphOvercast
8:55 AM32.0 °F28.4 °F87 %29.82 in3.0 miSW (220°)6.9 mphOvercast
9:15 AM32.0 °F30.2 °F93 %29.81 in5.0 miSouth (180°)4.6 mphOvercast
9:35 AM33.8 °F30.2 °F87 %29.81 in5.0 miSSW (200°)5.8 mphOvercast
9:55 AM33.8 °F30.2 °F87 %29.82 in8.0 miSSW (210°)5.8 mphOvercast
10:15 AM33.8 °F30.2 °F87 %29.82 in10.0 miSW (220°)6.9 mphMostly Cloudy
10:35 AM35.6 °F30.2 °F81 %29.82 in10.0 miWSW (240°)10.4 mphMostly Cloudy
10:55 AM35.6 °F28.4 °F75 %29.82 in10.0 miSW (230°)11.5 mph16.1 mphOvercast
11:15 AM35.6 °F28.4 °F75 %29.83 in10.0 miWSW (240°)12.7 mphOvercast
11:35 AM33.8 °F28.4 °F81 %29.83 in10.0 miWSW (250°)12.7 mphOvercast
11:55 AM33.8 °F28.4 °F81 %29.83 in10.0 miWSW (240°)11.5 mph17.3 mphOvercast
12:15 PM33.8 °F28.4 °F81 %29.82 in10.0 miWSW (240°)11.5 mphOvercast
12:35 PM33.8 °F28.4 °F81 %29.83 in10.0 miWest (260°)10.4 mphOvercast
12:55 PM33.8 °F28.4 °F81 %29.83 in10.0 miWSW (250°)8.1 mphOvercast
1:15 PM33.8 °F28.4 °F81 %29.82 in10.0 miWSW (240°)11.5 mphOvercast
1:35 PM33.8 °F28.4 °F81 %29.83 in10.0 miWSW (250°)12.7 mphOvercast
1:55 PM33.8 °F28.4 °F81 %29.82 in10.0 miWest (280°)6.9 mphOvercast
2:15 PM32.0 °F28.4 °F87 %29.83 in9.0 miWNW (290°)6.9 mphOvercast
2:35 PM32.0 °F28.4 °F87 %29.82 in10.0 miWNW (300°)11.5 mphOvercast
2:55 PM32.0 °F28.4 °F87 %29.83 in4.0 miWest (280°)9.2 mphOvercast
3:15 PM32.0 °F28.4 °F87 %29.83 in10.0 miWest (270°)10.4 mphOvercast
3:35 PM32.0 °F28.4 °F87 %29.83 in8.0 miWest (270°)8.1 mphOvercast
3:55 PM32.0 °F28.4 °F87 %29.83 in8.0 miWest (280°)9.2 mphOvercast
4:15 PM30.2 °F26.6 °F86 %29.83 in8.0 miWNW (290°)9.2 mphOvercast
4:35 PM30.2 °F26.6 °F86 %29.85 in10.0 miWNW (290°)9.2 mphOvercast
4:55 PM30.2 °F26.6 °F86 %29.85 in5.0 miWest (280°)8.1 mphOvercast
5:15 PM30.2 °F26.6 °F86 %29.85 in8.0 miWest (260°)8.1 mphOvercast
5:35 PM30.2 °F26.6 °F86 %29.85 in7.0 miWest (280°)6.9 mphOvercast
5:55 PM30.2 °F28.4 °F93 %29.85 in5.0 miWest (270°)6.9 mphOvercast
6:15 PM30.2 °F26.6 °F86 %29.86 in5.0 miWNW (290°)10.4 mphOvercast
6:35 PM30.2 °F26.6 °F86 %29.86 in3.0 miWest (270°)9.2 mphOvercast
6:55 PM30.2 °F26.6 °F86 %29.86 in3.0 miWest (270°)9.2 mphOvercast
7:15 PM30.2 °F26.6 °F86 %29.87 in3.0 miWest (280°)8.1 mphOvercast
7:35 PM30.2 °F26.6 °F86 %29.87 in4.0 miWest (270°)6.9 mphOvercast
7:55 PM30.2 °F26.6 °F86 %29.88 in5.0 miWest (270°)5.8 mphOvercast
8:15 PM30.2 °F26.6 °F86 %29.89 in4.0 miWest (270°)11.5 mphOvercast
8:35 PM30.2 °F26.6 °F86 %29.89 in6.0 miWest (270°)8.1 mphOvercast
8:55 PM30.2 °F26.6 °F86 %29.89 in5.0 miWest (270°)10.4 mphOvercast
9:15 PM28.4 °F26.6 °F93 %29.89 in4.0 miWest (260°)11.5 mph16.1 mphOvercast
9:35 PM28.4 °F26.6 °F93 %29.89 in6.0 miWest (270°)8.1 mph17.3 mphOvercast
9:55 PM28.4 °F24.8 °F86 %29.89 in9.0 miWest (270°)10.4 mph16.1 mphOvercast
10:15 PM28.4 °F24.8 °F86 %29.90 in8.0 miWest (260°)12.7 mphOvercast
10:35 PM28.4 °F24.8 °F86 %29.90 in10.0 miWSW (250°)11.5 mphOvercast
10:55 PM28.4 °F24.8 °F86 %29.90 in10.0 miWSW (250°)12.7 mph18.4 mphOvercast
11:15 PM28.4 °F24.8 °F86 %29.90 in10.0 miWest (260°)13.8 mphOvercast
11:35 PM28.4 °F24.8 °F86 %29.90 in9.0 miWest (260°)13.8 mph20.7 mphOvercast
11:55 PM28.4 °F24.8 °F86 %29.90 in8.0 miWest (260°)9.2 mphOvercast
Hourly data recorded from KJHW, located miles away from Jamestown, New York







STORIES FROM OUR PARTNERS